DateTime,F1_A11,F1_S11,BsB_S11,BsG_S11,BsR_S11,BbsB_S11,BbsG_S11,BbsR_S11,BaB_A11,BaG_A11,BaR_A11,T_S11,U_S11,P_S11,T1_A11
2016-02-29T00:00:00Z,0000380,21000600,,,,,,,,,,24.5,00.0,0652.6,34.3
2016-02-29T00:01:00Z,0000380,21000600,,,,,,,,,,24.5,00.0,0652.6,34.3
2016-02-29T00:02:00Z,0000380,21000600,,,,,,,,,,24.5,00.0,0652.6,34.3
2016-02-29T00:03:00Z,0000380,61000600,,,,,,,,,,24.5,00.0,0652.6,34.3
2016-02-29T00:04:00Z,0000380,41000600,0000.83,-000.45,0000.91,-000.23,0000.29,0000.35,0000.12,-000.10,0000.04,24.6,00.0,0653.3,34.3
2016-02-29T00:05:00Z,0000380,01000600,-000.43,-000.32,0000.00,-000.71,0000.30,0000.05,0000.14,0000.25,-000.12,24.6,00.0,0653.3,34.3
2016-02-29T00:06:00Z,0000380,01000600,0002.28,0000.41,0000.57,-000.24,-000.53,0000.02,-000.29,-000.16,-000.00,24.6,00.0,0653.3,34.3
2016-02-29T00:07:00Z,0000380,01000600,0000.32,0000.66,-000.02,0000.03,0000.38,-000.23,0000.30,0000.03,-000.06,24.6,00.0,0653.3,34.3
2016-02-29T00:08:00Z,0000380,01000600,-001.54,0000.56,0000.24,0000.08,-000.22,-000.35,0000.02,0000.10,0000.05,24.6,00.0,0653.4,34.3
2016-02-29T00:09:00Z,0000380,01000600,-000.15,0000.04,-000.14,-000.43,-000.32,-000.18,-000.20,-000.01,-000.15,24.7,00.0,0653.4,34.3
2016-02-29T00:10:00Z,0000380,01000600,0000.37,-000.20,0000.20,-000.08,0000.06,0000.05,0000.15,0000.09,0000.18,24.7,00.0,0653.4,34.3
2016-02-29T00:11:00Z,0000380,01000600,-000.24,0000.34,-000.33,-000.18,-000.13,-000.52,0000.06,0000.04,0000.14,24.7,00.0,0653.4,34.3
2016-02-29T00:12:00Z,0000380,01000600,0000.55,0000.31,-000.01,0000.10,0000.08,0000.06,-000.03,-000.09,-000.19,24.7,00.0,0653.4,34.3
2016-02-29T00:13:00Z,0000380,01000600,0000.19,-000.16,0000.18,0000.02,0000.11,-000.02,0000.08,0000.14,0000.25,24.7,00.0,0653.3,34.3
2016-02-29T00:14:00Z,0000380,01000600,-000.06,0000.11,0000.19,-000.19,-000.30,0000.16,0000.03,-000.00,-000.24,24.7,00.0,0653.3,34.3
2016-02-29T00:15:00Z,0000380,01000600,-000.24,0000.71,-000.08,0000.16,0000.16,-000.21,0000.11,0000.06,0000.20,24.7,00.0,0653.3,34.3
2016-02-29T00:16:00Z,0000380,01000600,-000.11,0000.14,0000.09,0000.50,0000.50,-000.40,-000.11,0000.07,-000.15,24.7,00.0,0653.3,34.3
2016-02-29T00:17:00Z,0000380,01000600,0001.30,0000.63,0000.35,-001.16,0000.26,0000.05,0000.04,-000.18,0000.09,24.7,00.0,0653.3,34.3
2016-02-29T00:18:00Z,0000380,01000600,0000.05,0000.74,0000.30,-000.24,-000.16,-000.03,0000.11,0000.17,0000.04,24.7,00.0,0653.3,34.3
2016-02-29T00:19:00Z,0000380,01000600,0000.82,0000.35,-000.05,-000.48,0000.21,0000.06,0000.12,0000.20,0000.21,24.7,00.0,0653.3,34.3
2016-02-29T00:20:00Z,0000380,01000600,-001.33,-000.34,0000.10,0000.32,0000.24,0000.00,-000.11,-000.21,-000.16,24.7,00.0,0653.3,34.3
2016-02-29T00:21:00Z,0000380,01000600,0001.43,0000.60,0000.35,-000.26,0000.59,-000.23,0000.05,-000.07,0000.04,24.7,00.0,0653.3,34.3
2016-02-29T00:22:00Z,0000380,01000600,0000.77,0000.27,0000.16,-000.32,0000.10,-000.29,-000.00,0000.23,0000.01,24.7,00.0,0653.3,34.3
2016-02-29T00:23:00Z,0000380,01000600,-000.04,0000.36,-000.07,-000.26,0000.34,-000.13,-000.08,-000.08,0000.07,24.7,00.0,0653.3,34.3
2016-02-29T00:24:00Z,0000380,01000600,0000.65,-000.17,-000.16,-000.13,0000.18,-000.19,-000.02,-000.01,-000.19,24.7,00.0,0653.3,34.3
2016-02-29T00:25:00Z,0000380,01000600,0000.19,-000.14,0000.37,0000.02,0000.14,0000.02,0000.26,0000.03,0000.43,24.7,00.0,0653.3,34.3
2016-02-29T00:26:00Z,0000380,01000600,0000.36,0000.05,-000.28,0000.43,-000.27,-000.14,0000.04,0000.28,-000.27,24.7,00.0,0653.3,34.3
2016-02-29T00:27:00Z,0000380,01000600,0000.63,0000.01,-000.04,-000.80,0000.22,-000.05,0000.04,-000.08,0000.31,24.7,00.0,0653.3,34.3
2016-02-29T00:28:00Z,0000380,01000600,0000.04,-000.03,-000.04,0000.48,-000.32,-000.03,-000.19,0000.05,-000.17,24.7,00.0,0653.3,34.3
2016-02-29T00:29:00Z,0000380,01000600,-000.27,0000.07,0000.04,-000.10,-000.05,-000.37,0000.24,0000.04,-000.00,24.7,00.0,0653.3,34.3
2016-02-29T00:30:00Z,0000380,01000600,0000.70,-000.22,-000.07,-000.23,0000.10,-000.06,-000.04,-000.09,0000.02,24.7,00.0,0653.3,34.3
2016-02-29T00:31:00Z,0000380,01000600,0000.46,-000.09,-000.14,-000.13,-000.05,-000.19,-000.17,0000.03,-000.03,24.7,00.0,0653.3,34.3
2016-02-29T00:32:00Z,0000380,01000600,0000.42,0000.27,0000.38,-000.23,-000.13,-000.48,0000.28,0000.15,0000.14,24.7,00.0,0653.3,34.3
2016-02-29T00:33:00Z,0000380,01000600,0000.17,-000.38,0000.22,-000.19,0000.22,-000.34,-000.34,-000.19,0000.12,24.7,00.0,0653.3,34.3
2016-02-29T00:34:00Z,0000380,01000600,0000.60,0000.52,-000.02,-000.51,-000.03,-000.06,0000.29,0000.03,-000.30,24.7,00.0,0653.3,34.3
2016-02-29T00:35:00Z,0000380,01000600,-000.80,0000.29,0000.42,-000.21,0000.26,-000.24,-000.02,0000.12,0000.03,24.7,00.0,0653.3,34.3
2016-02-29T00:36:00Z,0000380,01000600,0000.82,0000.52,0000.27,0000.35,-000.32,0000.06,-000.02,-000.19,0000.19,24.7,00.0,0653.3,34.3
2016-02-29T00:37:00Z,0000380,01000600,-000.40,0000.85,0000.12,0000.23,-000.03,-000.10,0000.04,0000.19,0000.11,24.7,00.0,0653.3,34.3
2016-02-29T00:38:00Z,0000380,01000600,0001.55,0000.85,0000.13,-000.93,0000.13,-000.11,-000.03,0000.02,-000.11,24.7,00.0,0653.3,34.3
2016-02-29T00:39:00Z,0000380,01000600,-000.12,0000.12,-000.16,-000.51,0000.34,-000.02,-000.03,-000.11,-000.04,24.7,00.0,0653.3,34.3
2016-02-29T00:40:00Z,0000380,01000600,0000.16,-000.02,0000.09,-000.66,0000.16,-000.14,0000.05,0000.04,-000.15,24.7,00.0,0653.2,34.3
2016-02-29T00:41:00Z,0000380,01000600,-001.20,-000.42,0000.29,-000.92,-000.30,-000.40,0000.07,0000.12,0000.08,24.6,00.0,0653.2,34.3
2016-02-29T00:42:00Z,0000380,01000600,0000.93,0000.20,0000.02,-000.40,0000.13,-000.16,-000.02,0000.01,-000.06,24.7,00.0,0653.2,34.3
2016-02-29T00:43:00Z,0000380,01000600,0000.31,0000.28,-000.05,0000.02,0000.26,-000.53,-000.15,-000.07,-000.05,24.6,00.0,0653.2,34.3
2016-02-29T00:44:00Z,0000380,01000600,-000.19,-000.30,0000.02,0000.29,0000.54,0000.06,0000.12,0000.16,0000.08,24.6,00.0,0653.2,34.3
2016-02-29T00:45:00Z,0000380,01000600,0000.32,0000.40,0000.19,-000.19,0000.24,0000.05,0000.10,-000.08,0000.37,24.6,00.0,0653.2,34.2
2016-02-29T00:46:00Z,0000380,01000600,0000.33,0000.32,-000.33,-000.10,-000.05,-000.32,0000.11,0000.08,-000.28,24.6,00.0,0653.2,34.2
2016-02-29T00:47:00Z,0000380,01000600,0000.65,0000.15,-000.02,-000.21,0000.38,-000.35,-000.05,0000.04,-000.00,24.6,00.0,0653.2,34.2
2016-02-29T00:48:00Z,0000380,01000600,0000.76,0000.55,0000.20,0000.43,0000.10,-000.06,0000.02,-000.10,-000.11,24.6,00.0,0653.2,34.2
2016-02-29T00:49:00Z,0000380,01000600,-001.42,0000.19,0000.48,-000.29,-000.40,0000.19,-000.07,-000.14,0000.24,24.6,00.0,0653.1,34.2
2016-02-29T00:50:00Z,0000380,01000600,0000.24,0000.35,-000.58,-000.39,0000.18,-000.43,0000.12,0000.29,0000.29,24.7,00.0,0653.1,34.2
2016-02-29T00:51:00Z,0000380,01000600,-000.12,-000.31,-000.18,-000.26,-000.27,-000.66,0000.05,-000.20,-000.56,24.7,00.0,0653.1,34.2
2016-02-29T00:52:00Z,0000380,01000600,-000.23,0000.03,0000.15,0000.37,-000.05,-000.55,-000.18,-000.10,-000.04,24.7,00.0,0653.1,34.2
2016-02-29T00:53:00Z,0000380,01000600,0000.03,-000.28,0000.56,0000.56,0000.10,-000.56,0000.02,0000.25,0000.29,24.7,00.0,0653.1,34.2
2016-02-29T00:54:00Z,0000380,01000600,-000.05,0000.73,0000.16,-000.48,-000.14,-000.31,0000.20,0000.05,0000.06,24.7,00.0,0653.1,34.2
2016-02-29T00:55:00Z,0000380,01000600,-000.18,-000.31,0000.15,-000.11,-000.51,-000.34,0000.04,0000.04,-000.02,24.7,00.0,0653.1,34.2
2016-02-29T00:56:00Z,0000380,01000600,0000.93,0000.77,0000.02,0000.21,0000.29,-000.37,0000.30,0000.10,0000.18,24.7,00.0,0653.1,34.2
2016-02-29T00:57:00Z,0000380,41000600,,,,,,,,,,,,0653.0,34.2
2016-02-29T00:58:00Z,0000380,61000600,,,,,,,,,,24.7,00.0,0652.4,34.2
2016-02-29T00:59:00Z,0000380,21000600,,,,,,,,,,24.7,00.0,0652.4,34.2
2016-02-29T01:00:00Z,0000380,21000600,,,,,,,,,,24.7,00.0,0652.4,34.3
2016-02-29T01:01:00Z,0000380,21000600,,,,,,,,,,24.7,00.0,0652.4,34.3
2016-02-29T01:02:00Z,0000380,21000600,,,,,,,,,,24.7,00.0,0652.4,34.3
2016-02-29T01:03:00Z,0000380,61000600,,,,,,,,,,24.7,00.0,0652.4,34.3
2016-02-29T01:04:00Z,0000380,41000600,0000.45,-000.29,0000.18,-000.16,-000.29,0000.21,-000.12,0000.17,0000.29,24.7,00.0,0653.0,34.3
2016-02-29T01:05:00Z,0000380,01000600,-000.34,0000.10,-000.27,-000.31,0000.24,-000.34,-000.01,0000.05,-000.29,24.7,00.0,0653.1,34.3
2016-02-29T01:06:00Z,0000380,01000600,-000.89,0000.29,0000.32,-000.88,-000.02,0000.32,0000.24,-000.09,0000.09,24.7,00.0,0653.1,34.3
2016-02-29T01:07:00Z,0000380,01000600,-000.48,-000.09,0000.00,-000.51,0000.16,0000.14,-000.01,0000.17,-000.01,24.7,00.0,0653.0,34.3
2016-02-29T01:08:00Z,0000380,01000600,0000.80,0000.47,0000.08,0000.27,0000.02,0000.08,0000.08,0000.03,0000.27,24.7,00.0,0653.0,34.3
2016-02-29T01:09:00Z,0000380,01000600,0000.14,-000.14,0000.20,-000.14,-000.10,0000.08,-000.18,-000.10,-000.32,24.7,00.0,0653.0,34.3
2016-02-29T01:10:00Z,0000380,01000600,-000.17,0000.59,0000.05,-000.55,0000.02,-000.29,0000.08,0000.06,0000.25,24.7,00.0,0653.0,34.3
2016-02-29T01:11:00Z,0000380,01000600,0001.13,-000.10,0000.15,-000.82,0000.16,-000.02,-000.05,-000.03,-000.06,24.7,00.0,0653.0,34.3
2016-02-29T01:12:00Z,0000380,01000600,-000.08,-000.51,0000.33,-000.06,0000.10,0000.18,0000.10,0000.26,0000.04,24.7,00.0,0653.0,34.3
2016-02-29T01:13:00Z,0000380,01000600,0001.30,0000.59,0000.12,-000.68,-000.16,-000.03,-000.07,-000.23,-000.12,24.7,00.0,0653.1,34.3
2016-02-29T01:14:00Z,0000380,01000600,0000.53,-000.51,-000.18,-000.43,-000.14,0000.26,0000.19,-000.11,0000.07,24.7,00.0,0653.0,34.3
2016-02-29T01:15:00Z,0000380,01000600,-000.81,-000.09,-000.41,0000.34,-000.16,0000.08,0000.00,0000.17,0000.01,24.7,00.0,0653.0,34.2
2016-02-29T01:16:00Z,0000380,01000600,0000.65,-000.62,0000.11,-000.31,0000.05,0000.11,-000.04,0000.06,0000.18,24.7,00.0,0653.0,34.2
2016-02-29T01:17:00Z,0000380,01000600,0000.91,0000.54,-000.12,-000.16,0000.22,-000.05,0000.03,0000.01,0000.21,24.7,00.0,0653.0,34.2
2016-02-29T01:18:00Z,0000380,01000600,-000.04,0000.27,-000.34,-000.10,0000.26,0000.26,-000.15,-000.09,-000.53,24.7,00.0,0653.0,34.2
2016-02-29T01:19:00Z,0000380,01000600,0000.22,-000.76,-000.20,-000.26,0000.03,-000.08,0000.14,0000.07,0000.15,24.7,00.0,0652.9,34.2
2016-02-29T01:20:00Z,0000380,01000600,0000.45,0000.04,0000.40,-000.19,-000.29,0000.32,-000.20,-000.08,0000.05,24.8,00.0,0652.9,34.2
2016-02-29T01:21:00Z,0000380,01000600,0000.70,-000.30,0000.53,-000.48,0000.13,-000.03,0000.07,-000.11,-000.03,24.8,00.0,0653.0,34.2
2016-02-29T01:22:00Z,0000380,01000600,-000.11,0000.12,-000.07,0000.16,-000.14,-000.18,-000.02,0000.04,0000.35,24.8,00.0,0653.0,34.2
2016-02-29T01:23:00Z,0000380,01000600,0000.47,-000.09,0000.27,0000.45,0000.14,0000.18,0000.21,0000.34,-000.18,24.8,00.0,0653.0,34.2
2016-02-29T01:24:00Z,0000380,01000600,-000.34,-000.18,0000.31,-000.69,-000.26,0000.26,-000.05,-000.04,0000.01,24.8,00.0,0653.0,34.2
2016-02-29T01:25:00Z,0000380,01000600,0001.58,-000.12,0000.17,-000.43,0000.30,0000.02,-000.04,0000.03,-000.09,24.8,00.0,0653.0,34.2
2016-02-29T01:26:00Z,0000380,01000600,0000.06,0000.51,-000.12,0000.79,-000.08,0000.13,-000.08,-000.09,0000.13,24.8,00.0,0653.0,34.2
2016-02-29T01:27:00Z,0000380,01000600,0001.27,-000.23,0000.17,-000.53,0000.27,0000.31,0000.14,0000.21,0000.14,24.8,00.0,0652.9,34.2
2016-02-29T01:28:00Z,0000380,01000600,0000.51,0000.03,0000.07,-000.24,-000.51,0000.06,0000.11,0000.01,0000.09,24.8,00.0,0652.9,34.2
2016-02-29T01:29:00Z,0000380,01000600,0000.04,0000.48,0000.39,-000.42,0000.32,0000.21,0000.05,0000.03,-000.21,24.8,00.0,0652.9,34.2
2016-02-29T01:30:00Z,0000380,01000600,0000.50,0000.46,0000.50,-000.29,-000.03,0000.11,-000.08,-000.08,0000.28,24.8,00.0,0652.9,34.3
2016-02-29T01:31:00Z,0000380,01000600,0000.43,-000.11,0000.35,-000.19,0000.43,0000.13,0000.13,-000.03,-000.15,24.8,00.0,0652.9,34.3
2016-02-29T01:32:00Z,0000380,01000600,0000.05,-000.16,-000.07,-000.80,0000.14,-000.03,0000.11,-000.01,-000.04,24.8,00.0,0652.9,34.3
2016-02-29T01:33:00Z,0000380,01000600,0000.19,0000.02,-000.19,-000.53,0000.46,0000.08,-000.02,0000.15,0000.05,24.8,00.0,0652.9,34.3
2016-02-29T01:34:00Z,0000380,01000600,-000.25,0000.06,-000.12,-000.18,0000.30,-000.15,0000.01,0000.03,0000.07,24.8,00.0,0652.9,34.3
2016-02-29T01:35:00Z,0000380,01000600,0000.54,-000.20,-000.03,-000.55,0000.00,0000.27,0000.05,-000.00,-000.19,24.8,00.0,0653.0,34.3
2016-02-29T01:36:00Z,0000380,01000600,0000.59,0000.24,0000.55,-000.26,-000.22,0000.44,-000.09,0000.00,0000.05,24.8,00.0,0653.0,34.3
2016-02-29T01:37:00Z,0000380,01000600,0000.38,0000.15,0000.02,0000.03,0000.00,0000.21,0000.07,0000.07,0000.06,24.7,00.0,0652.9,34.3
2016-02-29T01:38:00Z,0000380,01000600,0000.05,-000.16,0000.42,0000.19,0000.16,0000.18,-000.02,-000.14,-000.05,24.7,00.0,0652.9,34.3
2016-02-29T01:39:00Z,0000380,01000600,0001.43,-000.36,-000.17,-000.85,-000.38,0000.00,-000.05,0000.04,-000.02,24.7,00.0,0652.9,34.3
2016-02-29T01:40:00Z,0000380,01000600,-000.41,-000.09,-000.08,-000.40,0000.16,0000.00,-000.01,0000.19,0000.27,24.7,00.0,0652.9,34.3
2016-02-29T01:41:00Z,0000380,01000600,0001.04,-000.09,-000.18,0000.00,0000.03,-000.32,0000.20,-000.12,-000.14,24.7,00.0,0652.9,34.3
2016-02-29T01:42:00Z,0000380,01000600,-000.15,-000.18,-000.66,-000.02,-000.27,0000.10,-000.06,0000.09,-000.06,24.7,00.0,0652.9,34.3
2016-02-29T01:43:00Z,0000380,01000600,0000.19,-000.25,0000.44,-000.61,-000.26,0000.18,-000.02,0000.06,0000.02,24.7,00.0,0652.9,34.3
2016-02-29T01:44:00Z,0000380,01000600,-000.04,-000.28,0000.29,-000.08,0000.38,0000.34,-000.03,0000.00,-000.07,24.7,00.0,0652.9,34.3
2016-02-29T01:45:00Z,0000380,01000600,0001.18,0000.31,-000.57,-001.24,0000.03,-000.27,0000.08,-000.25,0000.06,24.7,00.0,0652.9,34.2
2016-02-29T01:46:00Z,0000380,01000600,-000.45,0000.96,-000.19,-000.06,0000.19,-000.19,0000.10,0000.17,0000.15,24.7,00.0,0652.9,34.2
2016-02-29T01:47:00Z,0000380,01000600,-000.28,0000.03,0000.29,-000.23,0000.29,0000.34,-000.06,0000.22,-000.00,24.7,00.0,0652.9,34.2
2016-02-29T01:48:00Z,0000380,01000600,0000.35,0000.02,0000.05,-000.92,-000.16,-000.13,0000.18,-000.22,0000.16,24.7,00.0,0652.9,34.2
2016-02-29T01:49:00Z,0000380,01000600,0000.33,0000.06,0000.37,-000.23,-000.10,-000.14,-000.12,-000.08,-000.17,24.6,00.0,0652.9,34.2
2016-02-29T01:50:00Z,0000380,01000600,-000.69,0000.22,-000.12,0000.08,-000.02,-000.02,0000.06,0000.29,0000.02,24.7,00.0,0652.9,34.2
2016-02-29T01:51:00Z,0000380,01000600,-000.09,-000.44,0000.18,-000.51,0000.05,0000.02,-000.18,-000.04,-000.16,24.7,00.0,0652.9,34.2
2016-02-29T01:52:00Z,0000380,01000600,0000.30,-000.67,-000.14,-000.53,-000.45,-000.31,0000.13,-000.01,0000.33,24.7,00.0,0652.9,34.2
2016-02-29T01:53:00Z,0000380,01000600,0000.00,0000.34,-000.02,-000.13,-000.08,0000.08,-000.12,-000.00,-000.20,24.6,00.0,0652.8,34.2
2016-02-29T01:54:00Z,0000380,01000600,0001.06,-000.40,-000.20,-000.69,-000.06,-000.08,0000.42,0000.11,0000.18,24.7,00.0,0652.8,34.2
2016-02-29T01:55:00Z,0000380,01000600,0000.04,0000.39,0000.14,0000.43,0000.58,-000.18,-000.26,-000.08,-000.31,24.7,00.0,0652.8,34.2
2016-02-29T01:56:00Z,0000380,01000600,0000.26,0000.00,-000.12,-000.19,0000.11,0000.34,0000.04,0000.01,0000.46,24.7,00.0,0652.8,34.2
2016-02-29T01:57:00Z,0000380,41000600,,,,,,,,,,,,0652.7,34.2
2016-02-29T01:58:00Z,0000380,61000600,,,,,,,,,,24.5,00.0,0652.0,34.2
2016-02-29T01:59:00Z,0000380,21000600,,,,,,,,,,24.5,00.0,0652.0,34.2
2016-02-29T02:00:00Z,0000380,21000600,,,,,,,,,,24.5,00.0,0652.0,34.3
2016-02-29T02:01:00Z,0000380,21000600,,,,,,,,,,24.5,00.0,0652.0,34.3
2016-02-29T02:02:00Z,0000380,21000600,,,,,,,,,,24.5,00.0,0652.0,34.3
2016-02-29T02:03:00Z,0000380,61000600,,,,,,,,,,24.6,00.0,0652.0,34.3
2016-02-29T02:04:00Z,0000380,41000600,0000.02,-000.07,0000.28,-000.18,0000.05,-000.10,-000.09,0000.13,0000.30,24.7,00.0,0652.7,34.3
2016-02-29T02:05:00Z,0000380,01000600,0000.38,-000.39,-000.08,-000.32,-000.43,0000.34,0000.10,-000.00,-000.28,24.7,00.0,0652.7,34.3
2016-02-29T02:06:00Z,0000380,01000600,0000.72,-000.19,0000.29,-000.71,0000.43,0000.31,-000.05,0000.13,0000.03,24.7,00.0,0652.7,34.3
2016-02-29T02:07:00Z,0000380,01000600,0000.29,0000.40,0000.03,0000.61,-000.35,-000.16,0000.05,-000.16,-000.06,24.8,00.0,0652.7,34.3
2016-02-29T02:08:00Z,0000380,01000600,0000.58,-000.40,0000.24,0000.21,0000.18,0000.31,-000.01,0000.03,-000.08,24.8,00.0,0652.7,34.3
2016-02-29T02:09:00Z,0000380,01000600,-000.02,0000.28,0000.20,-000.06,0000.08,0000.10,0000.31,0000.13,0000.45,24.8,00.0,0652.7,34.3
2016-02-29T02:10:00Z,0000380,01000600,-000.60,-000.49,0000.26,-000.10,-000.13,0000.08,-000.19,0000.12,-000.24,24.8,00.0,0652.8,34.3
2016-02-29T02:11:00Z,0000380,01000600,0000.19,-000.57,-000.02,-000.14,0000.42,0000.05,-000.09,0000.05,0000.31,24.8,00.0,0652.7,34.3
2016-02-29T02:12:00Z,0000380,01000600,-000.04,-000.10,0000.33,-000.29,0000.43,0000.16,0000.30,-000.05,-000.09,24.8,00.0,0652.7,34.3
2016-02-29T02:13:00Z,0000380,01000600,-000.59,-000.16,0000.05,0000.19,0000.13,0000.11,-000.07,-000.05,-000.03,24.8,00.0,0652.7,34.3
2016-02-29T02:14:00Z,0000380,01000600,-000.67,-000.20,0000.52,-000.32,0000.00,0000.29,-000.01,0000.18,0000.11,24.8,00.0,0652.7,34.3
2016-02-29T02:15:00Z,0000380,01000600,0000.69,0000.77,0000.09,-000.34,-000.13,-000.03,-000.00,0000.03,0000.03,24.8,00.0,0652.7,34.3
2016-02-29T02:16:00Z,0000380,01000600,0000.84,-000.30,0000.98,-000.77,-000.14,0000.29,0000.24,-000.10,-000.23,24.8,00.0,0652.7,34.3
2016-02-29T02:17:00Z,0000380,01000600,0001.13,0000.02,0000.20,-000.21,-000.03,-000.06,0000.01,0000.12,0000.28,24.8,00.0,0652.7,34.3
2016-02-29T02:18:00Z,0000380,01000600,0000.14,0000.54,0000.45,-000.34,0000.32,-000.03,-000.12,0000.01,-000.25,24.8,00.0,0652.7,34.3
2016-02-29T02:19:00Z,0000380,01000600,0000.28,0000.07,-000.32,0000.19,-000.03,0000.11,-000.04,-000.02,0000.09,24.8,00.0,0652.7,34.3
2016-02-29T02:20:00Z,0000380,01000600,0000.20,0000.19,-000.13,0000.26,-000.29,0000.11,0000.13,0000.05,-000.14,24.8,00.0,0652.7,34.3
2016-02-29T02:21:00Z,0000380,01000600,-000.66,0000.18,0000.16,-000.08,0000.08,-000.23,-000.09,0000.08,0000.34,24.8,00.0,0652.7,34.3
2016-02-29T02:22:00Z,0000380,01000600,0000.29,-000.18,0000.00,-000.27,0000.42,-000.27,0000.19,0000.04,-000.28,24.8,00.0,0652.7,34.3
2016-02-29T02:23:00Z,0000380,01000600,0000.58,-000.14,-000.08,0000.21,-000.48,-000.11,-000.06,-000.03,0000.26,24.8,00.0,0652.7,34.3
2016-02-29T02:24:00Z,0000380,01000600,-000.57,0000.47,0000.24,-000.03,0000.59,0000.48,-000.07,-000.14,-000.27,24.8,00.0,0652.7,34.3
2016-02-29T02:25:00Z,0000380,01000600,-000.35,-000.02,0000.14,-000.42,-000.24,-000.18,0000.09,0000.17,0000.33,24.8,00.0,0652.7,34.3
2016-02-29T02:26:00Z,0000380,01000600,0000.59,-000.07,0000.24,0000.13,0000.37,0000.31,-000.08,0000.04,0000.06,24.8,00.0,0652.7,34.3
2016-02-29T02:27:00Z,0000380,01000600,0000.67,0000.28,-000.12,-000.56,-000.03,0000.10,0000.04,0000.03,-000.13,24.8,00.0,0652.7,34.3
2016-02-29T02:28:00Z,0000380,01000600,0000.19,0000.27,0000.44,0000.66,0000.30,0000.08,0000.14,-000.00,-000.00,24.8,00.0,0652.7,34.3
2016-02-29T02:29:00Z,0000380,01000600,0000.00,-000.40,0000.33,0000.53,-000.38,0000.48,-000.00,0000.06,0000.15,24.8,00.0,0652.7,34.3
2016-02-29T02:30:00Z,0000380,01000600,0000.14,-000.18,0000.40,0000.43,0000.32,0000.24,-000.11,-000.12,-000.15,24.8,00.0,0652.6,34.3
2016-02-29T02:31:00Z,0000380,01000600,0001.37,-000.07,0000.34,-000.26,0000.08,-000.03,0000.13,0000.30,0000.54,24.8,00.0,0652.6,34.3
2016-02-29T02:32:00Z,0000380,01000600,0001.12,-000.82,0000.41,-000.05,-000.10,0000.11,0000.05,-000.25,-000.49,24.8,00.0,0652.7,34.3
2016-02-29T02:33:00Z,0000380,01000600,0000.73,-000.09,-000.12,-000.24,0000.00,0000.03,0000.13,-000.01,0000.28,24.8,00.0,0652.7,34.3
2016-02-29T02:34:00Z,0000380,01000600,0001.53,-000.45,0000.17,0000.43,0000.18,0000.21,-000.17,0000.16,-000.12,24.8,00.0,0652.6,34.3
2016-02-29T02:35:00Z,0000380,01000600,0000.58,0000.00,0000.15,0000.39,-000.24,0000.24,0000.13,0000.09,-000.09,24.8,00.0,0652.6,34.3
2016-02-29T02:36:00Z,0000380,01000600,0001.39,0000.30,0000.20,0000.37,0000.22,-000.05,-000.00,-000.08,0000.13,24.8,00.0,0652.6,34.3
2016-02-29T02:37:00Z,0000380,01000600,0001.60,-000.03,0000.42,-000.02,-000.42,-000.11,0000.25,-000.03,0000.13,24.8,00.0,0652.6,34.3
2016-02-29T02:38:00Z,0000380,01000600,0000.64,0000.36,-000.04,0000.29,0000.06,0000.02,-000.18,0000.07,-000.25,24.8,00.0,0652.6,34.3
2016-02-29T02:39:00Z,0000380,01000600,0000.10,-000.33,0000.34,0000.02,0000.03,0000.08,-000.08,0000.06,-000.05,24.9,00.0,0652.6,34.3
2016-02-29T02:40:00Z,0000380,01000600,0000.12,0000.23,-000.22,0000.13,0000.29,-000.24,0000.14,0000.04,0000.06,24.9,00.0,0652.6,34.3
2016-02-29T02:41:00Z,0000380,01000600,0000.04,0000.01,-000.21,-000.35,-000.22,0000.02,-000.05,-000.02,0000.29,24.9,00.0,0652.6,34.3
2016-02-29T02:42:00Z,0000380,01000600,0001.27,-000.22,0000.58,0000.34,-000.08,0000.23,0000.05,0000.08,-000.20,24.9,00.0,0652.6,34.3
2016-02-29T02:43:00Z,0000380,01000600,0000.59,0000.00,-000.07,-000.21,0000.14,0000.08,0000.05,-000.11,0000.15,24.9,00.0,0652.6,34.3
2016-02-29T02:44:00Z,0000380,01000600,0000.21,0000.14,0000.39,0000.42,-000.13,0000.27,-000.10,0000.07,-000.08,24.9,00.0,0652.6,34.3
2016-02-29T02:45:00Z,0000380,01000600,0000.33,0000.41,0000.60,0000.00,-000.32,0000.23,-000.01,-000.11,0000.31,24.9,00.0,0652.6,34.3
2016-02-29T02:46:00Z,0000380,01000600,0000.31,-000.25,0000.53,0000.24,0000.19,0000.26,0000.03,0000.10,-000.15,24.9,00.0,0652.6,34.3
2016-02-29T02:47:00Z,0000380,01000600,0000.12,-000.17,-000.26,0000.02,0000.14,0000.00,0000.08,0000.06,-000.09,25.0,00.0,0652.6,34.3
2016-02-29T02:48:00Z,0000380,01000600,-000.13,-000.13,0000.21,0000.56,0000.87,0000.32,0000.05,-000.05,0000.07,25.0,00.0,0652.6,34.3
2016-02-29T02:49:00Z,0000380,01000600,0000.29,0000.26,0000.02,-000.02,0000.13,-000.10,-000.02,0000.06,-000.22,25.0,00.0,0652.6,34.3
2016-02-29T02:50:00Z,0000380,01000600,-000.07,-000.02,0000.60,-000.13,0000.08,0000.05,0000.06,0000.00,0000.05,25.0,00.0,0652.6,34.3
2016-02-29T02:51:00Z,0000380,01000600,0000.21,-000.15,-000.02,0000.29,-000.02,-000.40,0000.05,0000.10,0000.16,25.0,00.0,0652.6,34.3
2016-02-29T02:52:00Z,0000380,01000600,0000.02,-000.29,0000.23,0000.24,-000.47,-000.11,0000.09,0000.07,0000.09,25.0,00.0,0652.6,34.3
2016-02-29T02:53:00Z,0000380,01000600,0000.66,-000.11,-000.05,-000.76,-000.06,0000.19,-000.09,-000.05,-000.07,25.0,00.0,0652.6,34.3
2016-02-29T02:54:00Z,0000380,01000600,-000.55,-000.36,0000.19,0000.13,0000.21,-000.13,-000.03,-000.05,-000.14,25.0,00.0,0652.6,34.3
2016-02-29T02:55:00Z,0000380,01000600,0000.31,0000.29,0000.13,-000.03,0000.26,0000.24,0000.07,0000.13,0000.09,25.0,00.0,0652.6,34.3
2016-02-29T02:56:00Z,0000380,01000600,0000.63,0000.00,0000.18,0000.13,0000.29,-000.18,-000.15,0000.13,0000.24,25.0,00.0,0652.6,34.3
2016-02-29T02:57:00Z,0000380,41010600,,,,,,,,,,,,0652.6,34.3
2016-02-29T02:58:00Z,0000380,61000600,,,,,,,,,,25.0,00.0,0651.8,34.3
2016-02-29T02:59:00Z,0000380,21000600,,,,,,,,,,25.0,00.0,0651.8,34.3
2016-02-29T03:00:00Z,0000380,21000600,,,,,,,,,,25.0,00.0,0651.8,34.3
2016-02-29T03:01:00Z,0000380,21000600,,,,,,,,,,25.0,00.0,0651.8,34.3
2016-02-29T03:02:00Z,0000380,21000600,,,,,,,,,,25.0,00.0,0651.8,34.3
2016-02-29T03:03:00Z,0000380,61000600,,,,,,,,,,25.0,00.0,0651.8,34.3
2016-02-29T03:04:00Z,0000380,41000600,0000.32,0000.50,-000.10,-000.19,-000.02,-000.26,-000.15,-000.02,0000.13,25.1,00.0,0652.5,34.3
2016-02-29T03:05:00Z,0000380,01000600,-000.57,0000.00,0000.25,-000.32,0000.22,-000.19,0000.07,-000.06,0000.09,25.1,00.0,0652.5,34.3
2016-02-29T03:06:00Z,0000380,01000600,0000.68,0000.33,-000.28,-000.79,0000.02,0000.16,0000.03,-000.07,-000.18,25.1,00.0,0652.5,34.3
2016-02-29T03:07:00Z,0000380,01000600,-000.43,0000.53,-000.12,0000.18,0000.31,-000.13,-000.08,0000.12,-000.01,25.1,00.0,0652.5,34.3
2016-02-29T03:08:00Z,0000380,01000600,0000.24,0000.55,0000.00,-000.10,0000.55,-000.19,0000.12,-000.06,0000.06,25.1,00.0,0652.5,34.3
2016-02-29T03:09:00Z,0000380,01000600,-000.26,0000.24,-000.21,0000.44,-000.22,-000.39,0000.00,0000.19,0000.22,25.1,00.0,0652.5,34.3
2016-02-29T03:10:00Z,0000380,01000600,-000.06,0000.16,-000.20,-000.05,-000.32,-000.15,0000.08,-000.10,-000.03,25.1,00.0,0652.5,34.3
2016-02-29T03:11:00Z,0000380,01000600,-000.93,0000.51,-000.14,0000.16,-000.06,0000.05,-000.04,0000.07,-000.28,25.1,00.0,0652.4,34.3
2016-02-29T03:12:00Z,0000380,01000600,-000.41,0000.07,0000.16,-000.18,0000.45,0000.32,0000.12,-000.11,0000.43,25.1,00.0,0652.5,34.3